Location: Unspecified
(0.0000°N, 0.0000°E)
Time: 01:53:40
(UTC+00:00)

Amateur Radio Satellites - All Passes

Search period start: 23 June 2017 01:23
Search period end: 24 June 2017 01:23
Location: Unspecified, 0.0000°N, 0.0000°E

Satellite Date Start Highest point End Downlink Frequencies (MHz)
Time Altitude Azimuth
Gurwin Techsat 1B 23 Jun 01:26:14 01:31:31 73° 103° (ESE) 01:36:50 435.225
SO-50 23 Jun 01:37:20 01:41:19 29° 248° (WSW) 01:45:22 436.795
DX 1 23 Jun 01:47:21 01:49:50 15° 257° (WSW) 01:52:17 434.975-435.025
AO-7 23 Jun 02:03:38 02:09:49 23° 107° (ESE) 02:15:58 .
ITUPSAT 1 23 Jun 02:08:52 02:12:56 28° 77° (ENE) 02:16:59 437.325
UKube-1 23 Jun 02:12:28 02:13:43 11° 257° (WSW) 02:14:57 .
BEESAT 23 Jun 02:20:41 02:25:10 41° 78° (ENE) 02:29:38 436.000
MOZHAYETS 4 23 Jun 02:21:07 02:24:43 23° 78° (ENE) 02:28:19
SRMSAT 23 Jun 02:29:43 02:34:43 28° 198° (SSW) 02:39:45 437.500
ITAMSAT 1 23 Jun 03:08:50 03:14:04 89° 279° (W) 03:19:18 435.822/435.867
ITUPSAT 1 23 Jun 03:47:46 03:50:29 15° 257° (WSW) 03:53:11 437.325
AO-7 23 Jun 03:54:18 04:02:11 47° 286° (WNW) 04:10:06 .
MOZHAYETS 4 23 Jun 03:58:34 04:01:36 17° 258° (WSW) 04:04:37
DOVE 4 23 Jun 04:09:23 04:10:36 11° 103° (ESE) 04:11:50 437.250
KKS-1 23 Jun 04:17:19 04:21:41 62° 78° (ENE) 04:26:02 437.445
SRMSAT 23 Jun 04:21:43 04:24:33 14° 190° (S) 04:27:25 437.500
CUBESAT XI-V 23 Jun 04:29:30 04:34:06 55° 258° (WSW) 04:38:39 437.345
JUGNU 23 Jun 04:35:51 04:37:08 11° 173° (S) 04:38:25 437.505
LilacSat-2 23 Jun 04:55:52 04:57:25 12° 102° (ESE) 04:59:00 437.200
STARS 23 Jun 04:56:01 05:00:22 71° 78° (ENE) 05:04:42 437.465
XW-2B 23 Jun 05:00:11 05:01:59 13° 102° (ESE) 05:03:48 145.730 - 145.750
Tancredo 1 23 Jun 05:13:22 05:15:36 19° 126° (SE) 05:17:51 437.200
XW-2C 23 Jun 05:14:17 05:17:17 23° 101° (ESE) 05:20:17 145.795 - 145.815
CUTE-I 23 Jun 05:29:19 05:34:14 37° 103° (ESE) 05:39:09 437.470
KAITUO 1B 23 Jun 05:35:55 05:39:19 36° 101° (ESE) 05:42:43 145.475/437.950
DOVE 4 23 Jun 05:42:58 05:47:54 47° 281° (W) 05:52:59 437.250
RS-15 23 Jun 05:48:50 05:55:38 17° 66° (ENE) 06:02:13 29.354- 29.394
CUTE 1.7 + AOD 2 23 Jun 06:14:41 06:17:22 17° 102° (ESE) 06:20:04 437.475
NUDT-PHONESAT 23 Jun 06:16:04 06:19:33 43° 281° (W) 06:23:02 437.300
XW-2F 23 Jun 06:22:08 06:25:15 26° 281° (WNW) 06:28:23 145.980 - 146.000
JUGNU 23 Jun 06:22:49 06:27:00 20° 164° (SSE) 06:31:12 437.505
XW-2A 23 Jun 06:23:22 06:24:35 12° 101° (ESE) 06:25:47 145.665 - 145.685
XW-2D 23 Jun 06:24:05 06:27:01 22° 281° (W) 06:29:57 145.860 - 145.880
LilacSat-2 23 Jun 06:28:47 06:31:26 18° 281° (W) 06:34:05 437.200
ISS 23 Jun 06:30:48 06:34:01 64° 306° (NW) 06:37:13 437.550
XW-2B 23 Jun 06:33:26 06:35:54 17° 281° (WNW) 06:38:24 145.730 - 145.750
STRAND 1 23 Jun 07:03:29 07:08:36 82° 78° (ENE) 07:13:43 437.568
AAUSAT CUBESAT 2 23 Jun 07:03:31 07:06:13 17° 102° (ESE) 07:08:58 437.432
CUTE-I 23 Jun 07:11:17 07:13:59 14° 283° (WNW) 07:16:42 437.470
AO-85 23 Jun 07:11:26 07:16:02 87° 250° (WSW) 07:21:00 145.980
HO-68 23 Jun 07:14:00 07:21:09 80° 285° (WNW) 07:28:18 435.675
BEESAT 3 23 Jun 07:25:02 07:28:52 59° 68° (ENE) 07:32:39 437.485
CUBEBUG 2 23 Jun 07:28:30 07:33:04 85° 99° (E) 07:37:31 437.445
SEEDS 23 Jun 07:37:22 07:41:22 48° 281° (W) 07:45:24 437.485
AO-73 23 Jun 07:38:17 07:41:37 22° 101° (ESE) 07:44:54 145.935
CUTE 1.7 + AOD 2 23 Jun 07:50:02 07:52:56 18° 281° (WNW) 07:55:50 437.475
XW-2A 23 Jun 07:55:09 07:57:03 14° 281° (WNW) 07:58:57 145.665 - 145.685
RS-15 23 Jun 07:56:26 08:07:53 73° 250° (WSW) 08:18:51 29.354- 29.394
SRMSAT 23 Jun 08:02:19 08:05:12 14° 170° (S) 08:08:07 437.500
NO-84 23 Jun 08:04:56 08:08:41 45° 239° (WSW) 08:12:07 435.350 FM
Oscar 11 23 Jun 08:08:15 08:12:20 44° 102° (ESE) 08:16:26 .
UWE-3 23 Jun 08:08:49 08:13:05 49° 282° (WNW) 08:17:17 435.000/436.395/437.385
ZACube-1 23 Jun 08:10:28 08:14:48 80° 102° (ESE) 08:19:02 437.345
JUGNU 23 Jun 08:10:39 08:16:20 48° 159° (SSE) 08:22:03 437.505
BEESAT 2 23 Jun 08:16:53 08:20:52 85° 72° (ENE) 08:24:47 435.950
O/OREOS (USA 219) 23 Jun 08:20:15 08:24:39 62° 75° (ENE) 08:29:05 437.305
YUBILEINY 23 Jun 08:30:30 08:38:02 32° 87° (E) 08:45:30 435.215
AAUSAT CUBESAT 2 23 Jun 08:38:44 08:41:25 17° 281° (WNW) 08:44:07 437.432
FO-29 23 Jun 08:55:58 09:00:38 31° 76° (ENE) 09:05:38 435.910
DELFI C3 23 Jun 08:56:17 08:59:56 37° 101° (ESE) 09:03:38 145.870
EO-88 23 Jun 09:05:13 09:08:22 28° 101° (ESE) 09:11:32 145.990 - 145.960
UNISAT 6 23 Jun 09:06:48 09:10:38 29° 78° (ENE) 09:14:31 437.425
PRISM 23 Jun 09:11:31 09:15:15 34° 78° (ENE) 09:18:55 437.425
M-CUBED/EXP-1 PRIME 23 Jun 09:12:21 09:16:07 67° 254° (WSW) 09:19:36 437.505
AO-73 23 Jun 09:15:18 09:17:33 14° 282° (WNW) 09:19:49 145.935
PCSat 23 Jun 09:33:08 09:34:36 11° 110° (ESE) 09:36:02 145.827
SRMSAT 23 Jun 09:49:58 09:55:03 28° 162° (SSE) 10:00:07 437.500
JUGNU 23 Jun 09:59:31 10:05:23 62° 339° (NNW) 10:11:18 437.505
TIGRISAT 23 Jun 10:01:36 10:05:52 49° 259° (WSW) 10:10:12 435.000
YUBILEINY 23 Jun 10:26:55 10:34:24 32° 267° (W) 10:41:55 435.215
POLYITAN 1 23 Jun 10:32:31 10:33:50 11° 78° (ENE) 10:35:10 437.675
QB50P2 23 Jun 10:41:34 10:44:29 18° 78° (ENE) 10:47:23 145.880/145.840
FO-29 23 Jun 10:42:29 10:45:34 16° 259° (W) 10:48:47 435.910
UNISAT 6 23 Jun 10:45:27 10:47:05 12° 258° (WSW) 10:48:44 437.425
EO-79 23 Jun 11:06:07 11:10:00 37° 78° (ENE) 11:13:54 145.935-145.965
AIST 2D 23 Jun 11:06:23 11:09:55 64° 260° (W) 11:13:26 435.315
LO-87 23 Jun 11:10:40 11:13:55 31° 281° (W) 11:17:11 145.935 - 145.965
PCSat 23 Jun 11:12:35 11:17:44 46° 289° (WNW) 11:22:53 145.827
DUCHIFAT 1 23 Jun 11:23:23 11:27:27 51° 78° (ENE) 11:31:31 145.980
NANOSAT C BR1 23 Jun 11:30:12 11:34:24 77° 78° (ENE) 11:38:35 145.865
ESTCUBE 1 23 Jun 11:36:40 11:40:47 37° 282° (WNW) 11:44:57 437.505/2401.250
SRMSAT 23 Jun 11:38:24 11:44:25 73° 158° (SSE) 11:50:24 437.500
JUGNU 23 Jun 11:49:52 11:54:38 24° 343° (NNW) 11:59:25 437.505
VELOX 1 23 Jun 11:50:23 11:54:41 50° 102° (ESE) 11:59:01 145.980
POLYITAN 1 23 Jun 12:05:46 12:09:20 27° 258° (WSW) 12:12:56 437.675
SO-50 23 Jun 12:10:10 12:13:57 24° 113° (ESE) 12:17:42 436.795
QB50P2 23 Jun 12:17:12 12:19:59 17° 258° (WSW) 12:22:46 145.880/145.840
DX 1 23 Jun 12:19:33 12:23:22 30° 102° (ESE) 12:27:12 434.975-435.025
Gurwin Techsat 1B 23 Jun 12:27:58 12:30:24 13° 77° (ENE) 12:32:49 435.225
SPROUT 23 Jun 12:33:07 12:36:57 33° 282° (WNW) 12:40:48 437.525
UKube-1 23 Jun 12:42:14 12:46:14 37° 102° (ESE) 12:50:15 .
BUGSAT 1 23 Jun 12:44:51 12:48:43 45° 259° (WSW) 12:52:36 437.445
50 SAT 23 Jun 12:54:12 12:57:19 34° 281° (WNW) 13:00:27 437.505
SRMSAT 23 Jun 13:28:02 13:33:39 41° 340° (NNW) 13:39:16 437.500
Oscar 19 23 Jun 13:33:19 13:38:19 48° 257° (WSW) 13:43:16 437.125/150
JUGNU 23 Jun 13:41:59 13:44:24 12° 351° (N) 13:46:50 437.505
SO-50 23 Jun 13:51:16 13:54:09 16° 292° (WNW) 13:57:01 436.795
DX 1 23 Jun 13:58:00 13:59:16 11° 282° (WNW) 14:00:32 434.975-435.025
Gurwin Techsat 1B 23 Jun 14:05:09 14:10:03 38° 257° (WSW) 14:14:57 435.225
ITAMSAT 1 23 Jun 14:07:00 14:09:52 15° 77° (ENE) 14:12:43 435.822/435.867
AO-7 23 Jun 14:28:39 14:36:09 38° 74° (ENE) 14:43:37 .
ITUPSAT 1 23 Jun 14:30:28 14:35:07 54° 102° (ESE) 14:39:45 437.325
MOZHAYETS 4 23 Jun 14:37:07 14:41:18 36° 102° (ESE) 14:45:29
BEESAT 23 Jun 14:42:10 14:46:56 82° 101° (E) 14:51:42 436.000
CUBESAT XI-V 23 Jun 15:13:14 15:15:04 12° 102° (ESE) 15:16:54 437.345
SRMSAT 23 Jun 15:19:18 15:23:14 18° 346° (NNW) 15:27:10 437.500
ITAMSAT 1 23 Jun 15:44:26 15:49:03 33° 257° (WSW) 15:53:39 435.822/435.867
AO-7 23 Jun 16:21:45 16:28:32 29° 253° (WSW) 16:35:22 .
DOVE 4 23 Jun 16:29:01 16:31:19 14° 79° (E) 16:33:35 437.250
KKS-1 23 Jun 16:29:31 16:34:00 87° 281° (W) 16:38:30 437.445
CUBESAT XI-V 23 Jun 16:48:07 16:52:08 31° 282° (WNW) 16:56:13 437.345
LilacSat-2 23 Jun 16:51:00 16:51:46 10° 79° (ENE) 16:52:31 437.200
XW-2B 23 Jun 16:54:36 16:55:38 11° 79° (ENE) 16:56:40 145.730 - 145.750
STARS 23 Jun 17:06:37 17:11:02 80° 284° (WNW) 17:15:29 437.465
XW-2C 23 Jun 17:08:10 17:10:57 19° 79° (E) 17:13:44 145.795 - 145.815
SRMSAT 23 Jun 17:12:33 17:13:22 10° 355° (N) 17:14:11 437.500
JUGNU 23 Jun 17:21:28 17:24:43 15° 12° (NNE) 17:27:56 437.505
KAITUO 1B 23 Jun 17:28:17 17:31:35 28° 79° (ENE) 17:34:51 145.475/437.950
RS-15 23 Jun 17:31:35 17:36:37 14° 113° (ESE) 17:41:44 29.354- 29.394
STRAND 1 23 Jun 18:00:20 18:02:16 12° 103° (ESE) 18:04:14 437.568
ISS 23 Jun 18:04:40 18:07:56 71° 55° (NE) 18:11:11 437.550
DOVE 4 23 Jun 18:05:42 18:08:47 20° 258° (WSW) 18:11:48 437.250
NUDT-PHONESAT 23 Jun 18:07:14 18:10:57 62° 258° (WSW) 18:14:40 437.300
CUTE-I 23 Jun 18:08:16 18:13:34 74° 257° (WSW) 18:18:51 437.470
XW-2F 23 Jun 18:14:59 18:18:29 34° 259° (W) 18:21:58 145.980 - 146.000
Tancredo 1 23 Jun 18:16:11 18:18:30 20° 234° (SW) 18:20:48 437.200
XW-2D 23 Jun 18:17:17 18:20:38 28° 259° (WSW) 18:23:58 145.860 - 145.880
CUTE 1.7 + AOD 2 23 Jun 18:20:27 18:23:41 21° 79° (ENE) 18:26:54 437.475
LilacSat-2 23 Jun 18:22:38 18:25:46 23° 259° (WSW) 18:28:53 437.200
XW-2B 23 Jun 18:26:31 18:29:33 22° 259° (WSW) 18:32:34 145.730 - 145.750
XW-2C 23 Jun 18:43:07 18:44:52 13° 258° (WSW) 18:46:37 145.795 - 145.815
SRMSAT 23 Jun 19:02:28 19:03:45 11° 6° (N) 19:05:02 437.500
HO-68 23 Jun 19:05:33 19:12:45 87° 76° (ENE) 19:19:58 435.675
AAUSAT CUBESAT 2 23 Jun 19:06:41 19:09:42 19° 79° (ENE) 19:12:41 437.432
JUGNU 23 Jun 19:09:04 19:14:18 31° 19° (NNE) 19:19:30 437.505
BEESAT 3 23 Jun 19:16:30 19:20:18 58° 112° (ESE) 19:24:09 437.485
AO-85 23 Jun 19:25:21 19:29:41 42° 291° (WNW) 19:33:43 145.980
STRAND 1 23 Jun 19:36:24 19:41:09 39° 283° (WNW) 19:45:55 437.568
XW-2A 23 Jun 19:36:36 19:39:36 28° 259° (W) 19:42:35 145.665 - 145.685
RS-15 23 Jun 19:37:06 19:48:44 87° 290° (WNW) 20:00:56 29.354- 29.394
CUBEBUG 2 23 Jun 19:40:39 19:44:56 64° 259° (WSW) 19:49:20 437.445
SEEDS 23 Jun 19:42:36 19:46:35 40° 258° (WSW) 19:50:34 437.485
AO-73 23 Jun 19:46:50 19:50:44 31° 78° (ENE) 19:54:41 145.935
NO-84 23 Jun 19:48:09 19:51:25 55° 302° (WNW) 19:54:59 435.350 FM
CUTE 1.7 + AOD 2 23 Jun 19:56:44 19:59:14 15° 258° (WSW) 20:01:45 437.475
BEESAT 2 23 Jun 20:09:45 20:13:37 88° 111° (ESE) 20:17:32 435.950
Oscar 11 23 Jun 20:16:44 20:21:02 61° 79° (E) 20:25:19 .
UWE-3 23 Jun 20:19:48 20:23:46 34° 259° (WSW) 20:27:51 435.000/436.395/437.385
ZACube-1 23 Jun 20:19:50 20:24:14 74° 259° (WSW) 20:28:42 437.345
FO-29 23 Jun 20:28:41 20:34:33 24° 102° (ESE) 20:40:04 435.910
O/OREOS (USA 219) 23 Jun 20:31:11 20:35:46 74° 284° (WNW) 20:40:19 437.305
TIGRISAT 23 Jun 20:41:37 20:42:41 11° 102° (ESE) 20:43:44 435.000
AAUSAT CUBESAT 2 23 Jun 20:42:26 20:44:53 15° 258° (WSW) 20:47:19 437.432
SRMSAT 23 Jun 20:49:40 20:53:48 19° 15° (NNE) 20:57:56 437.500
DELFI C3 23 Jun 20:54:35 20:58:13 35° 79° (E) 21:01:48 145.870
EO-88 23 Jun 20:55:25 20:58:09 20° 79° (ENE) 21:00:52 145.990 - 145.960
JUGNU 23 Jun 20:57:29 21:03:26 85° 22° (NNE) 21:09:20 437.505
YUBILEINY 23 Jun 21:02:50 21:11:27 63° 93° (E) 21:20:05 435.215
M-CUBED/EXP-1 PRIME 23 Jun 21:09:57 21:14:04 79° 286° (WNW) 21:18:31 437.505
PRISM 23 Jun 21:13:45 21:17:34 37° 102° (ESE) 21:21:26 437.425
UNISAT 6 23 Jun 21:19:44 21:24:03 45° 102° (ESE) 21:28:17 437.425
AO-73 23 Jun 21:25:29 21:26:42 11° 259° (WSW) 21:27:56 145.935
RS-15 23 Jun 21:57:28 22:01:19 12° 295° (WNW) 22:05:15 29.354- 29.394
PCSat 23 Jun 22:05:53 22:10:45 35° 70° (ENE) 22:15:39 145.827
FO-29 23 Jun 22:12:05 22:19:16 42° 284° (WNW) 22:26:01 435.910
TIGRISAT 23 Jun 22:15:05 22:19:06 32° 282° (WNW) 22:23:05 435.000
ESTCUBE 1 23 Jun 22:15:46 22:18:22 15° 78° (ENE) 22:20:56 437.505/2401.250
EO-88 23 Jun 22:30:38 22:31:32 11° 258° (WSW) 22:32:27 145.990 - 145.960
SRMSAT 23 Jun 22:37:39 22:43:18 46° 21° (NNE) 22:48:57 437.500
POLYITAN 1 23 Jun 22:37:46 22:39:59 14° 102° (ESE) 22:42:12 437.675
JUGNU 23 Jun 22:47:10 22:52:31 35° 199° (SSW) 22:57:50 437.505
QB50P2 23 Jun 22:47:20 22:50:39 22° 102° (ESE) 22:53:57 145.880/145.840
AIST 2D 23 Jun 22:52:21 22:55:47 69° 101° (E) 22:59:15 435.315
LO-87 23 Jun 22:58:23 23:01:49 50° 259° (W) 23:05:15 145.935 - 145.965
YUBILEINY 23 Jun 23:03:29 23:07:52 15° 273° (W) 23:12:16 435.215
SPROUT 23 Jun 23:06:43 23:08:22 12° 78° (ENE) 23:10:01 437.525
EO-79 23 Jun 23:11:55 23:15:58 46° 102° (ESE) 23:20:02 145.935-145.965
DUCHIFAT 1 23 Jun 23:28:33 23:32:43 62° 102° (ESE) 23:36:53 145.980
NANOSAT C BR1 23 Jun 23:35:45 23:39:59 87° 276° (W) 23:44:12 145.865
PCSat 23 Jun 23:50:55 23:53:53 15° 250° (WSW) 23:56:52 145.827
ESTCUBE 1 23 Jun 23:51:13 23:54:53 24° 258° (WSW) 23:58:32 437.505/2401.250
VELOX 1 24 Jun 00:01:50 00:06:13 75° 79° (ENE) 00:10:35 145.980
POLYITAN 1 24 Jun 00:12:11 00:15:30 22° 282° (WNW) 00:18:48 437.675
SO-50 24 Jun 00:21:59 00:26:20 44° 68° (ENE) 00:30:46 436.795
QB50P2 24 Jun 00:23:55 00:26:10 14° 282° (WNW) 00:28:25 145.880/145.840
SRMSAT 24 Jun 00:26:39 00:32:30 64° 201° (SSW) 00:38:24 437.500
Oscar 19 24 Jun 00:28:36 00:32:47 26° 103° (ESE) 00:37:01 437.125/150
DX 1 24 Jun 00:28:55 00:32:59 40° 78° (ENE) 00:37:01 434.975-435.025
50 SAT 24 Jun 00:37:14 00:40:38 72° 259° (W) 00:43:59 437.505
JUGNU 24 Jun 00:38:34 00:41:59 16° 193° (SSW) 00:45:25 437.505
SPROUT 24 Jun 00:40:28 00:43:59 26° 258° (WSW) 00:47:31 437.525
BUGSAT 1 24 Jun 00:47:45 00:51:43 41° 282° (WNW) 00:55:40 437.445
UKube-1 24 Jun 00:50:28 00:54:38 50° 78° (ENE) 00:58:47 .
Gurwin Techsat 1B 24 Jun 01:03:53 01:08:47 38° 103° (ESE) 01:13:42 435.225
